NJE656 PAMR-PAJN

Flight info

Callsign NJE656
Flight time N/A
Altitude 39000
Route PAMR1 BGQ JOH J501 YAK J541 BERGS SSR OWILY PUROY SEPFY ZEVMO WUSID TAWMO UCUXY OKVAW SAXRY GLAZZ
Aircraft E55P/M-SBDFGHJ2RWY/LB2

Departure

Time 2026-04-15 23:46
Airport Merrill Field (PAMR)

Arrival

Time N/A
Airport Juneau International Airport (PAJN)
Time Latitude Longitude Altitude Speed Heading
2026-04-15 23:34 61.21144 -149.85068 139 ft 0 kts 360°
2026-04-15 23:39 61.21145 -149.85068 139 ft 1 kts 360°
2026-04-15 23:39 61.21182 -149.85083 139 ft 7 kts 322°
2026-04-15 23:39 61.21223 -149.85153 139 ft 9 kts 358°
2026-04-15 23:39 61.21325 -149.85152 139 ft 17 kts 360°
2026-04-15 23:40 61.21451 -149.85153 139 ft 14 kts 360°
2026-04-15 23:40 61.21495 -149.85092 139 ft 9 kts 73°
2026-04-15 23:40 61.21520 -149.84926 139 ft 15 kts 89°
2026-04-15 23:40 61.21520 -149.84773 139 ft 15 kts 90°
2026-04-15 23:41 61.21520 -149.84546 139 ft 20 kts 90°
2026-04-15 23:41 61.21520 -149.84351 139 ft 4 kts 90°
2026-04-15 23:41 61.21520 -149.84348 139 ft 0 kts 90°
2026-04-15 23:42 61.21520 -149.84335 139 ft 0 kts 90°
2026-04-15 23:42 61.21520 -149.84222 139 ft 13 kts 90°
2026-04-15 23:42 61.21520 -149.84026 139 ft 15 kts 90°
2026-04-15 23:43 61.21520 -149.83786 139 ft 16 kts 90°
2026-04-15 23:43 61.21520 -149.83546 139 ft 17 kts 90°
2026-04-15 23:43 61.21520 -149.83313 139 ft 18 kts 90°
2026-04-15 23:43 61.21534 -149.83144 139 ft 7 kts 34°
2026-04-15 23:44 61.21550 -149.83136 139 ft 0 kts 359°
2026-04-15 23:44 61.21555 -149.83136 139 ft 5 kts
2026-04-15 23:45 61.21590 -149.83166 139 ft 4 kts 270°
2026-04-15 23:45 61.21590 -149.83170 139 ft 0 kts 268°
2026-04-15 23:45 61.21590 -149.83372 139 ft 51 kts 270°
2026-04-15 23:45 61.21590 -149.84349 140 ft 118 kts 270°
2026-04-15 23:46 61.21702 -149.88057 1261 ft 146 kts 297°
2026-04-15 23:46 61.22523 -149.89537 1774 ft 161 kts 342°
2026-04-15 23:46 61.23801 -149.89772 2031 ft 210 kts 357°
2026-04-15 23:47 61.25308 -149.89977 2696 ft 223 kts 356°
2026-04-15 23:47 61.26769 -149.90230 3494 ft 226 kts 355°
2026-04-15 23:47 61.28346 -149.90533 4348 ft 229 kts 355°
2026-04-15 23:47 61.29911 -149.90463 5147 ft 230 kts 20°
2026-04-15 23:48 61.31093 -149.88408 5954 ft 229 kts 61°
2026-04-15 23:48 61.31359 -149.85672 6653 ft 231 kts 96°
2026-04-15 23:48 61.30581 -149.82623 7510 ft 237 kts 136°
2026-04-15 23:48 61.29379 -149.80470 8315 ft 236 kts 133°
2026-04-15 23:49 61.28288 -149.78030 9124 ft 236 kts 128°
2026-04-15 23:49 61.27310 -149.75459 9899 ft 236 kts 125°
2026-04-15 23:49 61.26574 -149.73296 10507 ft 237 kts 123°
2026-04-15 23:49 61.25774 -149.70738 11184 ft 238 kts 122°
2026-04-15 23:50 61.24732 -149.67127 12075 ft 241 kts 121°
2026-04-15 23:50 61.23991 -149.64406 12729 ft 243 kts 121°